Weather History for VABB - December, 2013

Change the Weather History Date:

Saturday, December 7, 2013

  Actual Average Record
Temperature  
Mean Temperature 79 °F -  
Max Temperature 90 °F 87 °F 95 °F (2002)
Min Temperature 68 °F 68 °F 61 °F (2014)
Cooling Degree Days 14    
Growing Degree Days 29 (Base 50)    
Moisture  
Dew Point 62 °F    
Average Humidity 54    
Maximum Humidity 81    
Minimum Humidity 28    
Precipitation  
Precipitation 0.00 in - - ()
Sea Level Pressure  
Sea Level Pressure 29.85 in    
Wind  
Wind Speed 4 mph ()    
Max Wind Speed 12 mph    
Max Gust Speed -    
Visibility 1.5 miles    
Events      
Averages and records for this station are not official NWS values.
T = Trace of Precipitation, MM = Missing Value Source: Averaged Metar Reports

Daily Weather History Graph

Daily Weather History Graph

Search for Another Location

Airport or City:

Trip Planner

Search our weather history database for the weather conditions in past years. The results will help you decide how hot, cold, wet, or windy it might be!

Date:

Astronomy

Dec. 07, 2013 Rise Set
Actual Time 6:59 AM IST 6:00 PM IST
Civil Twilight 6:35 AM IST 6:24 PM IST
Nautical Twilight 6:08 AM IST 6:51 PM IST
Astronomical Twilight 5:41 AM IST 7:18 PM IST
Moon 10:49 AM IST 10:44 PM IST
Length of Visible Light 11h 48m
Length of Day
11h 01m
Waxing Crescent, 24% of the Moon is Illuminated
Dec 7
Waxing Crescent
Dec 9
First Quarter
Dec 17
Full
Dec 25
Last Quarter
Jan 1
New

Hourly Weather History & Observations

Time (IST) Temp. Heat Index Dew Point Humidity Pressure Visibility Wind Dir Wind Speed Gust Speed Precip Events Conditions
12:10 AM 78.8 °F - 66.2 °F 65% 29.86 in 1.6 mi Calm Calm - N/A   Haze
12:40 AM 78.8 °F - 66.2 °F 65% 29.86 in 1.6 mi Calm Calm - N/A   Haze
1:10 AM 78.8 °F - 66.2 °F 65% 29.86 in 1.6 mi Calm Calm - N/A   Haze
1:40 AM 77.0 °F - 66.2 °F 69% 29.86 in 1.3 mi East 4.6 mph - N/A   Haze
2:10 AM 78.8 °F - 66.2 °F 65% 29.83 in 1.4 mi SE 5.8 mph - N/A   Haze
2:30 AM 72 °F - 67 °F 81% 29.85 in 1 mi Calm Calm - -   Haze
2:40 AM 77.0 °F - 66.2 °F 69% 29.83 in 1.6 mi ESE 4.6 mph - N/A   Haze
3:10 AM 77.0 °F - 66.2 °F 69% 29.83 in 1.4 mi ENE 4.6 mph - N/A   Haze
3:40 AM 77.0 °F - 66.2 °F 69% 29.83 in 1.4 mi Variable 2.3 mph - N/A   Haze
4:10 AM 75.2 °F - 62.6 °F 65% 29.83 in 1.6 mi Variable 2.3 mph - N/A   Smoke
4:40 AM 75.2 °F - 62.6 °F 65% 29.83 in 1.7 mi Calm Calm - N/A   Smoke
5:10 AM 75.2 °F - 62.6 °F 65% 29.83 in 1.7 mi Variable 2.3 mph - N/A   Smoke
5:30 AM 70 °F - 64 °F 76% 29.84 in 1 mi Calm Calm - -   Haze
5:40 AM 75.2 °F - 62.6 °F 65% 29.83 in 1.6 mi NE 4.6 mph - N/A   Smoke
6:10 AM 75.2 °F - 62.6 °F 65% 29.83 in 1.6 mi NE 5.8 mph - N/A   Smoke
6:40 AM 75.2 °F - 62.6 °F 65% 29.86 in 1.6 mi NE 4.6 mph - N/A   Smoke
7:40 AM 75.2 °F - 62.6 °F 65% 29.89 in 1.4 mi SSE 4.6 mph - N/A   Smoke
8:10 AM 77.0 °F - 62.6 °F 61% 29.89 in 1.6 mi NE 4.6 mph - N/A   Smoke
8:30 AM 74 °F - 63 °F 60% 29.90 in 1 mi Calm Calm - -   Smoke
8:40 AM 78.8 °F - 60.8 °F 54% 29.89 in 1.4 mi ESE 5.8 mph - N/A   Smoke
9:10 AM 80.6 °F 80.5 °F 55.4 °F 42% 29.92 in 1.6 mi East 8.1 mph - N/A   Smoke
9:40 AM 82.4 °F 82.5 °F 59.0 °F 45% 29.92 in 1.6 mi ESE 8.1 mph - N/A   Smoke
10:10 AM 84.2 °F 83.5 °F 57.2 °F 40% 29.92 in 1.6 mi ESE 6.9 mph - N/A   Smoke
11:10 AM 86.0 °F 84.5 °F 55.4 °F 35% 29.92 in 1.9 mi East 4.6 mph - N/A   Smoke
11:30 AM 86 °F - 58 °F 28% 29.91 in 1 mi Calm Calm - -   Smoke
11:40 AM 86.0 °F 84.9 °F 57.2 °F 37% 29.89 in 1.9 mi SE 2.3 mph - N/A   Smoke
12:10 PM 87.8 °F 85.7 °F 53.6 °F 31% 29.89 in 1.9 mi ESE 4.6 mph - N/A   Smoke
12:40 PM 87.8 °F - 51.8 °F 29% 29.89 in 1.9 mi ENE 3.5 mph - N/A   Smoke
1:10 PM 87.8 °F - 51.8 °F 29% 29.86 in 1.9 mi NNE 4.6 mph - N/A   Smoke
1:40 PM 86.0 °F 86.1 °F 60.8 °F 43% 29.83 in 1.9 mi West 9.2 mph - N/A   Smoke
2:10 PM 86.0 °F 86.1 °F 60.8 °F 43% 29.83 in 1.6 mi West 9.2 mph - N/A   Smoke
2:30 PM 87 °F - 60 °F 30% 29.84 in 1 mi West 5.8 mph - -   Smoke
2:40 PM 86.0 °F 85.4 °F 59.0 °F 40% 29.83 in 1.6 mi WNW 10.4 mph - N/A   Smoke
3:10 PM 86.0 °F 86.6 °F 62.6 °F 45% 29.80 in 1.4 mi WNW 10.4 mph - N/A   Smoke
3:40 PM 87.8 °F 88.5 °F 62.6 °F 43% 29.80 in 1.4 mi WNW 11.5 mph - N/A   Smoke
4:10 PM 86.0 °F 85.4 °F 59.0 °F 40% 29.80 in 1.6 mi NW 9.2 mph - N/A   Smoke
4:40 PM 84.2 °F 85.0 °F 62.6 °F 48% 29.80 in 1.6 mi WNW 11.5 mph - N/A   Smoke
5:10 PM 84.2 °F 84.4 °F 60.8 °F 45% 29.80 in 1.6 mi NW 9.2 mph - N/A   Smoke
5:30 PM 83 °F - 60 °F 35% 29.82 in 1 mi NW 6.9 mph - -   Smoke
5:40 PM 84.2 °F 84.4 °F 60.8 °F 45% 29.80 in 1.1 mi NW 6.9 mph - N/A   Smoke
6:10 PM 82.4 °F 83.4 °F 62.6 °F 51% 29.83 in 1.6 mi NW 8.1 mph - N/A   Smoke
6:40 PM 80.6 °F 81.8 °F 62.6 °F 54% 29.83 in 1.6 mi NNW 5.8 mph - N/A   Smoke
7:40 PM 80.6 °F 82.3 °F 64.4 °F 58% 29.83 in 1.9 mi NNW 6.9 mph - N/A   Smoke
8:10 PM 80.6 °F 82.3 °F 64.4 °F 58% 29.86 in 1.9 mi NNW 6.9 mph - N/A   Smoke
8:30 PM 80 °F - 64 °F 49% 29.86 in 1 mi North 5.8 mph - -   Smoke
8:40 PM 80.6 °F 82.3 °F 64.4 °F 58% 29.86 in 1.9 mi North 5.8 mph - N/A   Smoke
9:10 PM 80.6 °F 81.8 °F 62.6 °F 54% 29.86 in 1.9 mi North 6.9 mph - N/A   Smoke
9:40 PM 78.8 °F - 64.4 °F 61% 29.86 in 1.6 mi North 4.6 mph - N/A   Smoke
10:10 PM 78.8 °F - 64.4 °F 61% 29.86 in 1.6 mi North 4.6 mph - N/A   Smoke
10:40 PM 78.8 °F - 62.6 °F 57% 29.86 in 1.6 mi East 5.8 mph - N/A   Smoke
11:10 PM 78.8 °F - 60.8 °F 54% 29.86 in 1.6 mi ENE 3.5 mph - N/A   Smoke
11:30 PM 73 °F - 66 °F 72% 29.87 in 1 mi Calm Calm - -   Haze
11:40 PM 77.0 °F - 62.6 °F 61% 29.86 in 1.6 mi SSE 4.6 mph - N/A   Smoke